Weather History for KD50 - March, 2014

Change the Weather History Date:

Thursday, March 27, 2014

  Actual Average (KISN) Record (KISN)
Temperature  
Mean Temperature 22 °F 35 °F  
Max Temperature 30 °F 47 °F 79 °F (1946)
Min Temperature 14 °F 23 °F -15 °F (1898)
Degree Days  
Heating Degree Days 43 30  
Month to date heating degree days 990  
Since 1 July heating degree days 7758  
Cooling Degree Days 0 0  
Month to date cooling degree days 0  
Year to date cooling degree days 0  
Moisture  
Dew Point 15 °F    
Average Humidity 75    
Maximum Humidity 100    
Minimum Humidity 47    
Precipitation  
Precipitation 0.00 in 0.03 in 0.52 in (1975)
Month to date precipitation 0.61  
Year to date precipitation 1.59  
Sea Level Pressure  
Sea Level Pressure 29.84 in    
Wind  
Wind Speed 6 mph (NNE)    
Max Wind Speed 12 mph    
Max Gust Speed -    
Visibility 10 miles    
Events Snow    
T = Trace of Precipitation, MM = Missing Value Source: NWS Daily Summary

Daily Weather History Graph

Daily Weather History Graph

Search for Another Location

Airport or City:

Trip Planner

Search our weather history database for the weather conditions in past years. The results will help you decide how hot, cold, wet, or windy it might be!

Date:

Astronomy

Mar. 27, 2014 Rise Set
Actual Time 7:41 AM CDT 8:16 PM CDT
Civil Twilight 7:09 AM CDT 8:48 PM CDT
Nautical Twilight 6:31 AM CDT 9:26 PM CDT
Astronomical Twilight 5:52 AM CDT 10:06 PM CDT
Moon 5:50 AM CDT (3/27) 4:52 PM CDT (3/27)
Length of Visible Light 13h 39m
Length of Day
12h 35m
Waning Crescent, 13% of the Moon is Illuminated
Mar 27
Waning Crescent
Mar 30
New
Apr 7
First Quarter
Apr 15
Full
Apr 22
Last Quarter

Hourly Weather History & Observations

Time (CDT) Temp. Windchill Dew Point Humidity Pressure Visibility Wind Dir Wind Speed Gust Speed Precip Events Conditions
12:15 AM 23.0 °F 15.8 °F 15.8 °F 74% 29.70 in 10.0 mi NE 5.8 mph - N/A   Clear
12:35 AM 21.2 °F 12.6 °F 15.8 °F 80% 29.71 in 10.0 mi NE 6.9 mph - N/A   Clear
12:55 AM 21.2 °F 13.6 °F 15.8 °F 80% 29.72 in 10.0 mi ENE 5.8 mph - N/A   Clear
1:15 AM 19.4 °F 11.5 °F 17.6 °F 93% 29.72 in 10.0 mi NE 5.8 mph - N/A   Clear
1:35 AM 19.4 °F 14.3 °F 17.6 °F 93% 29.72 in 10.0 mi NNE 3.5 mph - N/A   Clear
1:55 AM 17.6 °F - 15.8 °F 93% 29.73 in 10.0 mi Calm Calm - N/A   Clear
2:15 AM 17.6 °F - 15.8 °F 93% 29.73 in 10.0 mi Calm Calm - N/A   Clear
2:35 AM 17.6 °F 12.3 °F 15.8 °F 93% 29.74 in 10.0 mi ENE 3.5 mph - N/A   Clear
2:55 AM 19.4 °F 12.8 °F 17.6 °F 93% 29.75 in 10.0 mi NE 4.6 mph - N/A   Clear
3:15 AM 15.8 °F 7.2 °F 14.0 °F 93% 29.74 in 10.0 mi North 5.8 mph - N/A   Clear
3:35 AM 15.8 °F 6.1 °F 15.8 °F 100% 29.75 in 10.0 mi North 6.9 mph - N/A   Clear
3:55 AM 15.8 °F 6.1 °F 15.8 °F 100% 29.75 in 10.0 mi NNE 6.9 mph - N/A   Clear
4:15 AM 15.8 °F 7.2 °F 15.8 °F 100% 29.76 in 10.0 mi NNE 5.8 mph - N/A   Clear
4:35 AM 17.6 °F 10.7 °F 15.8 °F 93% 29.77 in 10.0 mi NNE 4.6 mph - N/A   Clear
4:55 AM 15.8 °F 8.6 °F 14.0 °F 93% 29.77 in 10.0 mi NNE 4.6 mph - N/A   Clear
5:15 AM 15.8 °F 8.6 °F 14.0 °F 93% 29.77 in 10.0 mi NNE 4.6 mph - N/A   Clear
5:35 AM 15.8 °F 7.2 °F 15.8 °F 100% 29.77 in 10.0 mi NNE 5.8 mph - N/A   Clear
5:55 AM 14.0 °F 5.1 °F 14.0 °F 100% 29.78 in 10.0 mi North 5.8 mph - N/A   Clear
6:15 AM 14.0 °F 5.1 °F 14.0 °F 100% 29.79 in 10.0 mi North 5.8 mph - N/A   Mostly Cloudy
6:35 AM 15.8 °F 7.2 °F 15.8 °F 100% 29.80 in 10.0 mi North 5.8 mph - N/A   Overcast
6:55 AM 17.6 °F 9.3 °F 15.8 °F 93% 29.81 in 10.0 mi North 5.8 mph - N/A   Overcast
7:15 AM 17.6 °F 9.3 °F 17.6 °F 100% 29.81 in 10.0 mi NNE 5.8 mph - N/A   Overcast
7:35 AM 17.6 °F 9.3 °F 17.6 °F 100% 29.82 in 10.0 mi NNE 5.8 mph - N/A   Overcast
7:55 AM 15.8 °F 8.6 °F 15.8 °F 100% 29.84 in 10.0 mi NNE 4.6 mph - N/A Snow Light Snow
8:15 AM 15.8 °F 7.2 °F 15.8 °F 100% 29.84 in 10.0 mi NNE 5.8 mph - N/A Snow Light Snow
8:35 AM 17.6 °F 10.7 °F 17.6 °F 100% 29.85 in 10.0 mi NNE 4.6 mph - N/A   Mostly Cloudy
8:55 AM 17.6 °F 8.2 °F 17.6 °F 100% 29.85 in 10.0 mi NE 6.9 mph - N/A   Overcast
9:15 AM 19.4 °F 10.4 °F 17.6 °F 93% 29.85 in 10.0 mi ENE 6.9 mph - N/A   Overcast
9:35 AM 19.4 °F 10.4 °F 17.6 °F 93% 29.85 in 10.0 mi NE 6.9 mph - N/A   Mostly Cloudy
9:55 AM 19.4 °F 10.4 °F 17.6 °F 93% 29.85 in 10.0 mi ENE 6.9 mph - N/A   Partly Cloudy
10:15 AM 21.2 °F 13.6 °F 17.6 °F 86% 29.86 in 10.0 mi East 5.8 mph - N/A   Partly Cloudy
10:35 AM 23.0 °F 13.9 °F 17.6 °F 80% 29.86 in 10.0 mi ENE 8.1 mph - N/A   Clear
10:55 AM 23.0 °F 15.8 °F 15.8 °F 74% 29.86 in 10.0 mi East 5.8 mph - N/A   Clear
11:15 AM 23.0 °F 15.8 °F 14.0 °F 68% 29.87 in 10.0 mi East 5.8 mph - N/A   Mostly Cloudy
11:35 AM 24.8 °F 16.9 °F 12.2 °F 59% 29.87 in 10.0 mi East 6.9 mph - N/A   Overcast
11:55 AM 24.8 °F 16.9 °F 12.2 °F 59% 29.86 in 10.0 mi ENE 6.9 mph - N/A   Overcast
12:15 PM 24.8 °F 16.1 °F 14.0 °F 64% 29.86 in 10.0 mi East 8.1 mph - N/A   Overcast
12:35 PM 26.6 °F 21.2 °F 14.0 °F 59% 29.86 in 10.0 mi East 4.6 mph - N/A   Overcast
12:55 PM 26.6 °F 22.6 °F 12.2 °F 55% 29.86 in 10.0 mi East 3.5 mph - N/A   Scattered Clouds
1:15 PM 26.6 °F 22.6 °F 12.2 °F 55% 29.87 in 10.0 mi East 3.5 mph - N/A   Scattered Clouds
1:35 PM 28.4 °F 24.6 °F 10.4 °F 47% 29.87 in 10.0 mi ENE 3.5 mph - N/A   Partly Cloudy
1:55 PM 26.6 °F 21.2 °F 10.4 °F 51% 29.87 in 10.0 mi NNE 4.6 mph - N/A   Partly Cloudy
2:15 PM 28.4 °F - 14.0 °F 55% 29.87 in 10.0 mi Calm Calm - N/A   Mostly Cloudy
2:35 PM 28.4 °F - 10.4 °F 47% 29.87 in 10.0 mi Calm Calm - N/A   Overcast
2:55 PM 28.4 °F 24.6 °F 12.2 °F 51% 29.86 in 10.0 mi NW 3.5 mph - N/A   Overcast
3:15 PM 28.4 °F 23.3 °F 12.2 °F 51% 29.86 in 10.0 mi North 4.6 mph - N/A   Overcast
3:35 PM 30.2 °F - 12.2 °F 47% 29.86 in 10.0 mi Calm Calm - N/A   Overcast
3:55 PM 30.2 °F 25.4 °F 14.0 °F 51% 29.86 in 10.0 mi NNE 4.6 mph - N/A   Overcast
4:15 PM 30.2 °F 26.7 °F 12.2 °F 47% 29.86 in 10.0 mi NE 3.5 mph - N/A   Overcast
4:35 PM 28.4 °F 22.2 °F 12.2 °F 51% 29.86 in 10.0 mi NE 5.8 mph - N/A   Overcast
4:55 PM 28.4 °F 22.2 °F 10.4 °F 47% 29.86 in 10.0 mi NNW 5.8 mph - N/A   Overcast
5:15 PM 30.2 °F 24.3 °F 12.2 °F 47% 29.86 in 10.0 mi North 5.8 mph - N/A   Overcast
5:35 PM 30.2 °F 26.7 °F 14.0 °F 51% 29.86 in 10.0 mi NW 3.5 mph - N/A   Overcast
5:55 PM 28.4 °F 20.4 °F 14.0 °F 55% 29.86 in 10.0 mi North 8.1 mph - N/A   Overcast
6:15 PM 28.4 °F 21.2 °F 14.0 °F 55% 29.87 in 10.0 mi NNW 6.9 mph - N/A   Overcast
6:35 PM 28.4 °F 23.3 °F 14.0 °F 55% 29.87 in 10.0 mi North 4.6 mph - N/A   Overcast
6:55 PM 28.4 °F 22.2 °F 14.0 °F 55% 29.87 in 10.0 mi NNE 5.8 mph - N/A   Overcast
7:15 PM 28.4 °F 21.2 °F 14.0 °F 55% 29.88 in 10.0 mi NNE 6.9 mph - N/A   Overcast
7:35 PM 28.4 °F 21.2 °F 14.0 °F 55% 29.88 in 10.0 mi North 6.9 mph - N/A   Overcast
7:55 PM 28.4 °F 19.7 °F 15.8 °F 59% 29.89 in 10.0 mi NNE 9.2 mph - N/A   Overcast
8:15 PM 28.4 °F 20.4 °F 15.8 °F 59% 29.89 in 10.0 mi NNE 8.1 mph - N/A   Overcast
8:35 PM 26.6 °F 16.8 °F 17.6 °F 69% 29.90 in 10.0 mi NNE 10.4 mph - N/A   Overcast
8:55 PM 26.6 °F 17.5 °F 17.6 °F 69% 29.90 in 10.0 mi NNE 9.2 mph - N/A   Overcast
9:15 PM 26.6 °F 17.5 °F 17.6 °F 69% 29.92 in 10.0 mi NNE 9.2 mph - N/A   Overcast
9:35 PM 26.6 °F 17.5 °F 17.6 °F 69% 29.93 in 10.0 mi NNE 9.2 mph - N/A   Overcast
9:55 PM 26.6 °F 17.5 °F 17.6 °F 69% 29.93 in 10.0 mi NE 9.2 mph - N/A   Overcast
10:15 PM 24.8 °F 14.0 °F 17.6 °F 74% 29.94 in 10.0 mi NE 11.5 mph - N/A   Overcast
10:35 PM 24.8 °F 16.1 °F 15.8 °F 69% 29.95 in 10.0 mi East 8.1 mph - N/A   Overcast
10:55 PM 24.8 °F 16.9 °F 15.8 °F 69% 29.95 in 10.0 mi NE 6.9 mph - N/A   Overcast
11:15 PM 24.8 °F 15.3 °F 15.8 °F 69% 29.96 in 10.0 mi NNE 9.2 mph - N/A   Overcast
11:35 PM 24.8 °F 14.6 °F 17.6 °F 74% 29.96 in 10.0 mi NNE 10.4 mph - N/A   Overcast
11:55 PM 23.0 °F 12.4 °F 21.2 °F 93% 29.97 in 6.0 mi NNE 10.4 mph - N/A   Overcast